CW2551 Weather Reports


Display with metric or nautical units.
time (UTC)temp
F
wind
direction
speed
MPH
gust
MPH
rain 1hr
in
rain 24hr
in
rain mn
in
humidity
%
barometer
mb
20260509063104 60 36 0.0 0.0 0.00 0.00 0.00 63 1018.8
20260509063021 60 34 0.0 0.0 0.00 0.00 0.00 63 1018.8
20260509062105 61 34 0.0 0.0 0.00 0.00 0.00 63 1018.7
20260509062022 61 34 0.0 0.0 0.00 0.00 0.00 63 1018.7
20260509061606 61 34 0.0 0.0 0.00 0.00 0.00 63 1018.7
20260509061105 61 34 0.0 0.0 0.00 0.00 0.00 61 1018.8
20260509061021 62 34 0.0 0.0 0.00 0.00 0.00 61 1018.8
20260509060606 62 34 0.0 0.0 0.00 0.00 0.00 61 1018.8
20260509060105 62 33 0.0 0.0 0.00 0.00 0.00 61 1018.9
20260509060021 62 32 0.0 0.0 0.00 0.00 0.00 60 1018.9
20260509055604 62 32 0.0 0.0 0.00 0.00 0.00 60 1018.9
20260509055104 62 32 0.0 0.0 0.00 0.00 0.00 60 1018.9
20260509055022 63 32 0.0 0.0 0.00 0.00 0.00 59 1018.9
20260509054021 63 32 0.0 0.0 0.00 0.00 0.00 59 1018.9
20260509053604 63 32 0.0 0.0 0.00 0.00 0.00 59 1018.9
20260509053105 63 30 0.0 0.0 0.00 0.00 0.00 59 1018.9
20260509052020 64 16 0.0 0.0 0.00 0.00 0.00 58 1018.9
20260509051605 64 16 0.0 0.0 0.00 0.00 0.00 58 1018.9
20260509051104 64 16 0.0 0.0 0.00 0.00 0.00 57 1018.9
20260509051025 65 16 0.0 0.0 0.00 0.00 0.00 57 1018.9
20260509050604 65 16 0.0 0.0 0.00 0.00 0.00 57 1018.9
20260509050104 65 16 0.0 0.0 0.00 0.00 0.00 56 1018.7
20260509050022 65 16 0.0 0.0 0.00 0.00 0.00 56 1018.5
20260509045606 65 16 0.0 0.0 0.00 0.00 0.00 56 1018.5
20260509045104 65 16 0.0 0.0 0.00 0.00 0.00 54 1018.4
20260509045021 66 16 0.0 0.0 0.00 0.00 0.00 54 1018.3
20260509044605 66 16 0.0 0.0 0.00 0.00 0.00 54 1018.3
20260509044106 66 16 0.0 0.0 0.00 0.00 0.00 53 1018.3
20260509044022 67 16 0.0 0.0 0.00 0.00 0.00 53 1018.3
20260509043604 67 16 0.0 0.0 0.00 0.00 0.00 53 1018.3
20260509043104 67 16 0.0 0.0 0.00 0.00 0.00 52 1018.1
20260509043025 67 16 0.0 0.0 0.00 0.00 0.00 51 1018.1
20260509042604 67 16 0.0 0.0 0.00 0.00 0.00 51 1018.1
20260509042107 68 16 0.0 0.0 0.00 0.00 0.00 51 1017.9
20260509042021 68 17 0.0 0.0 0.00 0.00 0.00 50 1018.0
20260509041604 68 17 0.0 0.0 0.00 0.00 0.00 50 1018.0
20260509041106 68 17 0.0 0.0 0.00 0.00 0.00 49 1017.9
20260509041022 69 17 0.0 0.0 0.00 0.00 0.00 48 1017.8
20260509040605 69 17 0.0 0.0 0.00 0.00 0.00 48 1017.8
20260509040104 69 17 0.0 0.0 0.00 0.00 0.00 48 1017.7
20260509040022 69 16 0.0 0.0 0.00 0.00 0.00 48 1017.7
20260509035605 69 16 0.0 0.0 0.00 0.00 0.00 48 1017.7
20260509035022 69 19 0.0 0.0 0.00 0.00 0.00 46 1017.7
20260509034604 69 19 0.0 0.0 0.00 0.00 0.00 46 1017.7
20260509034023 70 13 0.0 6.0 0.00 0.00 0.00 45 1017.3
20260509033605 70 13 0.0 6.0 0.00 0.00 0.00 45 1017.3
20260509033021 70 23 1.0 7.0 0.00 0.00 0.00 45 1017.1
20260509032604 70 23 1.0 7.0 0.00 0.00 0.00 45 1017.1
20260509032020 71 26 0.0 0.0 0.00 0.00 0.00 45 1016.9
20260509031606 71 26 0.0 0.0 0.00 0.00 0.00 45 1016.9
20260509031104 71 358 2.0 6.0 0.00 0.00 0.00 45 1016.9
20260509030604 72 3 1.0 5.0 0.00 0.00 0.00 44 1016.8
20260509030104 72 45 2.0 8.0 0.00 0.00 0.00 44 1016.6
20260509030023 73 8 0.0 6.0 0.00 0.00 0.00 44 1016.6
20260509025605 73 8 0.0 6.0 0.00 0.00 0.00 44 1016.6
20260509025105 73 356 2.0 6.0 0.00 0.00 0.00 44 1016.5
20260509025021 73 345 0.0 3.0 0.00 0.00 0.00 43 1016.5
20260509024605 73 345 0.0 3.0 0.00 0.00 0.00 43 1016.5
20260509024104 74 351 0.0 5.0 0.00 0.00 0.00 42 1016.4
20260509024021 74 354 1.0 9.0 0.00 0.00 0.00 42 1016.4
20260509023605 74 354 1.0 9.0 0.00 0.00 0.00 42 1016.4
20260509023104 75 10 0.0 2.0 0.00 0.00 0.00 41 1016.3
20260509023022 75 357 3.0 12.0 0.00 0.00 0.00 40 1016.3
20260509022604 75 357 3.0 12.0 0.00 0.00 0.00 40 1016.3
20260509022021 76 344 4.0 12.0 0.00 0.00 0.00 39 1016.1
20260509021608 76 344 4.0 12.0 0.00 0.00 0.00 39 1016.1
20260509021104 76 352 3.0 12.0 0.00 0.00 0.00 38 1016.1
20260509021023 76 4 5.0 10.0 0.00 0.00 0.00 37 1015.9
20260509020604 76 4 5.0 10.0 0.00 0.00 0.00 37 1015.9
20260509020106 77 357 7.0 13.0 0.00 0.00 0.00 37 1015.9
20260509020022 77 358 2.0 8.0 0.00 0.00 0.00 37 1015.9
20260509015104 77 5 6.0 13.0 0.00 0.00 0.00 36 1015.8
20260509014105 78 18 3.0 12.0 0.00 0.00 0.00 33 1015.7
20260509014021 78 309 0.0 8.0 0.00 0.00 0.00 31 1015.6
20260509013604 78 309 0.0 8.0 0.00 0.00 0.00 31 1015.6
20260509013104 78 283 1.0 3.0 0.00 0.00 0.00 32 1015.6
20260509013024 78 10 1.0 5.0 0.00 0.00 0.00 31 1015.7
20260509012605 78 10 1.0 5.0 0.00 0.00 0.00 31 1015.7
20260509012103 79 25 1.0 8.0 0.00 0.00 0.00 31 1015.6
20260509012021 79 334 2.0 7.0 0.00 0.00 0.00 31 1015.7
20260509011604 79 334 2.0 7.0 0.00 0.00 0.00 31 1015.7
20260509011104 79 293 0.0 7.0 0.00 0.00 0.00 31 1015.7
20260509011021 79 2 1.0 8.0 0.00 0.00 0.00 31 1015.7
20260509010604 79 2 1.0 8.0 0.00 0.00 0.00 31 1015.7
20260509010104 79 347 3.0 9.0 0.00 0.00 0.00 30 1015.8
20260509010024 79 349 1.0 5.0 0.00 0.00 0.00 31 1015.8
20260509005604 79 349 1.0 5.0 0.00 0.00 0.00 31 1015.8
20260509005104 79 317 1.0 6.0 0.00 0.00 0.00 31 1015.8
20260509005021 79 291 2.0 12.0 0.00 0.00 0.00 30 1015.8
20260509004604 79 291 2.0 12.0 0.00 0.00 0.00 30 1015.8
20260509004022 79 300 1.0 8.0 0.00 0.00 0.00 30 1015.8
20260509003606 79 300 1.0 8.0 0.00 0.00 0.00 30 1015.8
20260509003106 80 352 4.0 8.0 0.00 0.00 0.00 29 1015.7
20260509003023 79 326 3.0 8.0 0.00 0.00 0.00 30 1015.7
20260509002604 79 326 3.0 8.0 0.00 0.00 0.00 30 1015.7
20260509002104 80 324 1.0 8.0 0.00 0.00 0.00 31 1015.7
20260509001604 80 345 2.0 12.0 0.00 0.00 0.00 29 1015.8
20260509001104 80 357 4.0 10.0 0.00 0.00 0.00 29 1015.9
20260509000606 80 4 6.0 10.0 0.00 0.00 0.00 29 1015.9
20260509000023 80 243 1.0 8.0 0.00 0.00 0.00 30 1015.9
20260508235604 80 243 1.0 8.0 0.00 0.00 0.00 30 1015.9
20260508235104 81 15 2.0 9.0 0.00 0.00 0.00 28 1016.1
20260508235022 81 347 3.0 9.0 0.00 0.00 0.00 27 1016.1
20260508234605 81 347 3.0 9.0 0.00 0.00 0.00 27 1016.1
20260508234104 81 2 2.0 8.0 0.00 0.00 0.00 29 1016.1
20260508234022 81 272 0.0 7.0 0.00 0.00 0.00 27 1016.1
20260508233605 81 272 0.0 7.0 0.00 0.00 0.00 27 1016.1
20260508233104 81 349 1.0 8.0 0.00 0.00 0.00 28 1016.1
20260508233022 81 30 2.0 8.0 0.00 0.00 0.00 27 1016.2
20260508232606 81 30 2.0 8.0 0.00 0.00 0.00 27 1016.2
20260508232104 81 234 2.0 8.0 0.00 0.00 0.00 28 1016.2
20260508232021 81 341 1.0 6.0 0.00 0.00 0.00 27 1016.2
20260508231604 81 341 1.0 6.0 0.00 0.00 0.00 27 1016.2
20260508231104 80 344 4.0 10.0 0.00 0.00 0.00 25 1016.2
20260508231021 80 328 3.0 8.0 0.00 0.00 0.00 27 1016.3
20260508230605 80 328 3.0 8.0 0.00 0.00 0.00 27 1016.3
20260508230104 80 345 1.0 3.0 0.00 0.00 0.00 27 1016.3
20260508230024 80 5 2.0 6.0 0.00 0.00 0.00 26 1016.4
20260508225604 80 5 2.0 6.0 0.00 0.00 0.00 26 1016.4
20260508225021 80 325 0.0 5.0 0.00 0.00 0.00 28 1016.4
20260508224604 80 325 0.0 5.0 0.00 0.00 0.00 28 1016.4
20260508224106 81 8 2.0 6.0 0.00 0.00 0.00 27 1016.5
20260508224021 80 304 0.0 5.0 0.00 0.00 0.00 28 1016.5
20260508223604 80 304 0.0 5.0 0.00 0.00 0.00 28 1016.5
20260508223104 79 354 1.0 9.0 0.00 0.00 0.00 30 1016.6
20260508223024 80 250 2.0 9.0 0.00 0.00 0.00 28 1016.7
20260508222605 80 250 2.0 9.0 0.00 0.00 0.00 28 1016.7
20260508222104 81 246 1.0 8.0 0.00 0.00 0.00 29 1016.6
20260508222021 81 346 3.0 9.0 0.00 0.00 0.00 31 1016.8
20260508221607 81 346 3.0 9.0 0.00 0.00 0.00 31 1016.8
20260508221104 80 348 4.0 9.0 0.00 0.00 0.00 28 1016.7
20260508221022 80 51 1.0 8.0 0.00 0.00 0.00 30 1016.7
20260508220604 80 51 1.0 8.0 0.00 0.00 0.00 30 1016.7
20260508220104 80 28 1.0 9.0 0.00 0.00 0.00 30 1016.9
20260508215604 80 351 1.0 5.0 0.00 0.00 0.00 30 1016.9
20260508215104 80 13 1.0 12.0 0.00 0.00 0.00 30 1016.9
20260508215023 80 323 1.0 6.0 0.00 0.00 0.00 29 1017.0
20260508214604 80 323 1.0 6.0 0.00 0.00 0.00 29 1017.0
20260508214104 80 33 1.0 3.0 0.00 0.00 0.00 30 1017.0
20260508214022 80 347 2.0 8.0 0.00 0.00 0.00 31 1017.1
20260508213104 79 348 2.0 8.0 0.00 0.00 0.00 34 1017.0
20260508213026 79 339 1.0 5.0 0.00 0.00 0.00 35 1017.2
20260508212604 79 339 1.0 5.0 0.00 0.00 0.00 35 1017.2
20260508212104 78 121 0.0 5.0 0.00 0.00 0.00 30 1017.1
20260508212020 79 9 0.0 8.0 0.00 0.00 0.00 34 1017.2
20260508211604 79 9 0.0 8.0 0.00 0.00 0.00 34 1017.2
20260508211104 79 353 2.0 9.0 0.00 0.00 0.00 34 1017.2
20260508211021 79 354 1.0 7.0 0.00 0.00 0.00 35 1017.2
20260508210104 79 5 1.0 6.0 0.00 0.00 0.00 31 1017.2
20260508205604 79 351 3.0 8.0 0.00 0.00 0.00 32 1017.2
20260508205106 78 12 4.0 8.0 0.00 0.00 0.00 33 1017.2
20260508205022 79 263 1.0 10.0 0.00 0.00 0.00 34 1017.2
20260508204604 79 263 1.0 10.0 0.00 0.00 0.00 34 1017.2
20260508204105 78 316 3.0 7.0 0.00 0.00 0.00 34 1017.2
20260508204020 78 332 1.0 10.0 0.00 0.00 0.00 32 1017.3
20260508203604 78 332 1.0 10.0 0.00 0.00 0.00 32 1017.3
20260508203025 77 68 2.0 5.0 0.00 0.00 0.00 36 1017.3
20260508202604 77 68 2.0 5.0 0.00 0.00 0.00 36 1017.3
20260508202104 78 12 2.0 6.0 0.00 0.00 0.00 35 1017.4
20260508201604 77 338 2.0 9.0 0.00 0.00 0.00 33 1017.4
20260508201106 76 31 1.0 5.0 0.00 0.00 0.00 34 1017.4
20260508201021 77 352 5.0 8.0 0.00 0.00 0.00 34 1017.5
20260508200604 77 352 5.0 8.0 0.00 0.00 0.00 34 1017.5
20260508200104 77 345 1.0 6.0 0.00 0.00 0.00 36 1017.5
20260508200025 77 41 1.0 7.0 0.00 0.00 0.00 33 1017.5
20260508195104 77 63 3.0 8.0 0.00 0.00 0.00 32 1017.6
20260508195021 75 50 1.0 5.0 0.00 0.00 0.00 35 1017.6
20260508194604 75 50 1.0 5.0 0.00 0.00 0.00 35 1017.6
20260508194104 75 356 0.0 7.0 0.00 0.00 0.00 35 1017.7
20260508194021 76 6 2.0 6.0 0.00 0.00 0.00 36 1017.8
20260508193104 76 28 0.0 5.0 0.00 0.00 0.00 38 1017.8
20260508193023 75 349 2.0 6.0 0.00 0.00 0.00 37 1017.9
20260508192606 75 349 2.0 6.0 0.00 0.00 0.00 37 1017.9
20260508192104 75 310 0.0 5.0 0.00 0.00 0.00 37 1017.9
20260508192020 74 1 0.0 0.0 0.00 0.00 0.00 37 1017.9
20260508191104 74 0 2.0 6.0 0.00 0.00 0.00 35 1018.0
20260508191022 73 349 1.0 7.0 0.00 0.00 0.00 38 1018.0
20260508190104 74 355 3.0 6.0 0.00 0.00 0.00 38 1018.2
20260508190025 74 49 1.0 6.0 0.00 0.00 0.00 40 1018.1
20260508185604 74 49 1.0 6.0 0.00 0.00 0.00 40 1018.1
20260508185104 73 36 2.0 6.0 0.00 0.00 0.00 37 1018.1
20260508185021 73 17 2.0 3.0 0.00 0.00 0.00 38 1018.2
20260508184104 71 21 0.0 5.0 0.00 0.00 0.00 45 1018.3
20260508184020 71 41 0.0 3.0 0.00 0.00 0.00 41 1018.3
20260508183604 71 41 0.0 3.0 0.00 0.00 0.00 41 1018.3
20260508183104 71 42 1.0 3.0 0.00 0.00 0.00 40 1018.3
20260508183024 72 56 2.0 5.0 0.00 0.00 0.00 42 1018.3
20260508182605 72 56 2.0 5.0 0.00 0.00 0.00 42 1018.3
20260508182104 71 39 2.0 6.0 0.00 0.00 0.00 45 1018.4
20260508182022 70 21 0.0 2.0 0.00 0.00 0.00 47 1018.5
20260508181604 70 21 0.0 2.0 0.00 0.00 0.00 47 1018.5
20260508181105 70 300 1.0 3.0 0.00 0.00 0.00 47 1018.5
20260508180605 70 9 3.0 5.0 0.00 0.00 0.00 44 1018.6
20260508180105 69 99 1.0 3.0 0.00 0.00 0.00 45 1018.6
20260508180022 68 49 0.0 3.0 0.00 0.00 0.00 45 1018.6
20260508175606 68 49 0.0 3.0 0.00 0.00 0.00 45 1018.6
20260508175104 69 53 1.0 3.0 0.00 0.00 0.00 44 1018.6
20260508175020 67 47 2.0 5.0 0.00 0.00 0.00 47 1018.6
20260508174604 67 47 2.0 5.0 0.00 0.00 0.00 47 1018.6
20260508173605 65 282 0.0 0.0 0.00 0.00 0.00 54 1018.6
20260508173106 65 294 0.0 0.0 0.00 0.00 0.00 57 1018.7
20260508173022 64 355 0.0 0.0 0.00 0.00 0.00 54 1018.7
20260508172020 64 355 0.0 0.0 0.00 0.00 0.00 55 1018.7
20260508171604 64 355 0.0 0.0 0.00 0.00 0.00 55 1018.7
20260508171104 65 355 0.0 0.0 0.00 0.00 0.00 56 1018.6
20260508171022 64 355 0.0 0.0 0.00 0.00 0.00 57 1018.6
20260508170604 64 355 0.0 0.0 0.00 0.00 0.00 57 1018.6
20260508170105 65 350 0.0 0.0 0.00 0.00 0.00 56 1018.5
20260508170022 65 355 0.0 0.0 0.00 0.00 0.00 53 1018.6
20260508165604 65 355 0.0 0.0 0.00 0.00 0.00 53 1018.6
20260508165104 66 355 0.0 3.0 0.00 0.00 0.00 52 1018.6
20260508165022 66 355 0.0 3.0 0.00 0.00 0.00 56 1018.7
20260508164104 65 355 0.0 0.0 0.00 0.00 0.00 57 1018.6
20260508164021 65 351 0.0 0.0 0.00 0.00 0.00 57 1018.7
20260508163605 65 351 0.0 0.0 0.00 0.00 0.00 57 1018.7
20260508163105 64 351 0.0 0.0 0.00 0.00 0.00 56 1018.7
20260508163023 64 348 0.0 0.0 0.00 0.00 0.00 58 1018.8
20260508162604 64 348 0.0 0.0 0.00 0.00 0.00 58 1018.8
20260508162104 64 348 0.0 0.0 0.00 0.00 0.00 60 1018.8
20260508162020 63 348 0.0 0.0 0.00 0.00 0.00 59 1018.8
20260508161104 63 350 0.0 0.0 0.00 0.00 0.00 62 1019.0
20260508161021 62 355 0.0 0.0 0.00 0.00 0.00 61 1018.9
20260508160606 62 355 0.0 0.0 0.00 0.00 0.00 61 1018.9
20260508160104 62 355 0.0 3.0 0.00 0.00 0.00 60 1018.9
20260508160022 62 355 0.0 2.0 0.00 0.00 0.00 61 1019.0
20260508155606 62 355 0.0 2.0 0.00 0.00 0.00 61 1019.0
20260508155105 61 355 0.0 0.0 0.00 0.00 0.00 62 1018.9
20260508155020 61 355 0.0 0.0 0.00 0.00 0.00 62 1018.9
20260508154105 61 344 0.0 0.0 0.00 0.00 0.00 63 1019.1
20260508154021 60 342 0.0 1.0 0.00 0.00 0.00 64 1019.0
20260508153605 60 342 0.0 1.0 0.00 0.00 0.00 64 1019.0
20260508152021 58 334 0.0 0.0 0.00 0.00 0.00 69 1018.9
20260508151604 58 334 0.0 0.0 0.00 0.00 0.00 69 1018.9
20260508151104 57 334 0.0 0.0 0.00 0.00 0.00 69 1018.9
20260508151020 56 334 0.0 0.0 0.00 0.00 0.00 70 1018.8
20260508150605 56 334 0.0 0.0 0.00 0.00 0.00 70 1018.8
20260508150104 56 332 0.0 0.0 0.00 0.00 0.00 73 1018.8
20260508150022 54 332 0.0 0.0 0.00 0.00 0.00 75 1018.7
20260508145104 53 332 0.0 0.0 0.00 0.00 0.00 78 1018.6
20260508145020 52 332 0.0 0.0 0.00 0.00 0.00 79 1018.6
20260508144606 52 332 0.0 0.0 0.00 0.00 0.00 79 1018.6
20260508144021 51 332 0.0 0.0 0.00 0.00 0.00 82 1018.5
20260508143604 51 332 0.0 0.0 0.00 0.00 0.00 82 1018.5
20260508143104 50 332 0.0 0.0 0.00 0.00 0.00 84 1018.5
20260508142606 49 332 0.0 0.0 0.00 0.00 0.00 85 1018.5
20260508142104 48 332 0.0 0.0 0.00 0.00 0.00 84 1018.4
20260508142021 48 332 0.0 0.0 0.00 0.00 0.00 84 1018.4
20260508141604 48 332 0.0 0.0 0.00 0.00 0.00 84 1018.4
20260508141104 48 332 0.0 0.0 0.00 0.00 0.00 83 1018.2
20260508141021 47 332 0.0 0.0 0.00 0.00 0.00 83 1018.2
20260508140604 47 332 0.0 0.0 0.00 0.00 0.00 83 1018.2
20260508140106 48 332 0.0 0.0 0.00 0.00 0.00 83 1018.1
20260508140023 48 332 0.0 0.0 0.00 0.00 0.00 83 1018.1
20260508135604 48 332 0.0 0.0 0.00 0.00 0.00 83 1018.1
20260508135021 48 332 0.0 0.0 0.00 0.00 0.00 82 1017.9
20260508134605 48 332 0.0 0.0 0.00 0.00 0.00 82 1017.9
20260508134106 48 332 0.0 0.0 0.00 0.00 0.00 81 1017.9
20260508134022 48 332 0.0 0.0 0.00 0.00 0.00 81 1017.9
20260508133605 48 332 0.0 0.0 0.00 0.00 0.00 81 1017.9
20260508133104 48 332 0.0 0.0 0.00 0.00 0.00 81 1017.9
20260508133022 48 332 0.0 0.0 0.00 0.00 0.00 81 1017.7
20260508132606 48 332 0.0 0.0 0.00 0.00 0.00 81 1017.7
20260508132104 48 332 0.0 0.0 0.00 0.00 0.00 81 1017.7
20260508132021 48 332 0.0 0.0 0.00 0.00 0.00 81 1017.7
20260508131605 48 332 0.0 0.0 0.00 0.00 0.00 81 1017.7
20260508131021 48 332 0.0 0.0 0.00 0.00 0.00 81 1017.7
20260508130606 48 332 0.0 0.0 0.00 0.00 0.00 81 1017.7
20260508130104 48 332 0.0 0.0 0.00 0.00 0.00 81 1017.7
20260508130022 48 332 0.0 0.0 0.00 0.00 0.00 81 1017.6
20260508125605 48 332 0.0 0.0 0.00 0.00 0.00 81 1017.6
20260508125104 48 332 0.0 0.0 0.00 0.00 0.00 81 1017.6
20260508125020 48 332 0.0 0.0 0.00 0.00 0.00 81 1017.6
20260508124606 48 332 0.0 0.0 0.00 0.00 0.00 81 1017.6
20260508124104 48 332 0.0 0.0 0.00 0.00 0.00 81 1017.5
20260508124020 48 332 0.0 0.0 0.00 0.00 0.00 80 1017.5
20260508123604 48 332 0.0 0.0 0.00 0.00 0.00 80 1017.5
20260508123104 48 332 0.0 0.0 0.00 0.00 0.00 80 1017.4
20260508123022 48 332 0.0 0.0 0.00 0.00 0.00 80 1017.3
20260508122604 48 332 0.0 0.0 0.00 0.00 0.00 80 1017.3
20260508122104 48 332 0.0 0.0 0.00 0.00 0.00 80 1017.3
20260508122021 48 332 0.0 0.0 0.00 0.00 0.00 80 1017.1
20260508121604 48 332 0.0 0.0 0.00 0.00 0.00 80 1017.1
20260508121104 48 332 0.0 0.0 0.00 0.00 0.00 80 1017.1
20260508121022 48 332 0.0 0.0 0.00 0.00 0.00 80 1017.2
20260508120604 48 332 0.0 0.0 0.00 0.00 0.00 80 1017.2
20260508120104 48 332 0.0 0.0 0.00 0.00 0.00 80 1017.0
20260508120020 48 332 0.0 0.0 0.00 0.00 0.00 80 1017.0
20260508115605 48 332 0.0 0.0 0.00 0.00 0.00 80 1017.0
20260508115104 49 332 0.0 0.0 0.00 0.00 0.00 80 1016.9
20260508115020 49 332 0.0 0.0 0.00 0.00 0.00 79 1017.0
20260508114606 49 332 0.0 0.0 0.00 0.00 0.00 79 1017.0
20260508114104 49 332 0.0 0.0 0.00 0.00 0.00 79 1017.0
20260508114021 49 332 0.0 0.0 0.00 0.00 0.00 79 1016.9
20260508113606 49 332 0.0 0.0 0.00 0.00 0.00 79 1016.9
20260508113105 49 332 0.0 0.0 0.00 0.00 0.00 79 1017.0
20260508113021 49 332 0.0 0.0 0.00 0.00 0.00 78 1016.8
20260508112605 49 332 0.0 0.0 0.00 0.00 0.00 78 1016.8
20260508112104 49 332 0.0 0.0 0.00 0.00 0.00 78 1016.7
20260508112020 49 332 0.0 0.0 0.00 0.00 0.00 78 1016.7
20260508111604 49 332 0.0 0.0 0.00 0.00 0.00 78 1016.7
20260508111103 49 332 0.0 0.0 0.00 0.00 0.00 77 1016.8
20260508111021 50 332 0.0 0.0 0.00 0.00 0.00 77 1016.7
20260508110106 50 332 0.0 0.0 0.00 0.00 0.00 77 1016.7
20260508110020 50 332 0.0 0.0 0.00 0.00 0.00 76 1016.7
20260508105020 50 332 0.0 0.0 0.00 0.00 0.00 76 1016.7
20260508104604 50 332 0.0 0.0 0.00 0.00 0.00 76 1016.7
20260508104104 50 332 0.0 0.0 0.00 0.00 0.00 76 1016.7
20260508104021 50 332 0.0 0.0 0.00 0.00 0.00 75 1016.6
20260508103105 51 332 0.0 0.0 0.00 0.00 0.00 75 1016.6
20260508103021 51 332 0.0 0.0 0.00 0.00 0.00 75 1016.6
20260508102604 51 332 0.0 0.0 0.00 0.00 0.00 75 1016.6
20260508102104 51 332 0.0 0.0 0.00 0.00 0.00 74 1016.6
20260508102020 51 332 0.0 0.0 0.00 0.00 0.00 74 1016.6
20260508101604 51 332 0.0 0.0 0.00 0.00 0.00 74 1016.6
20260508101105 51 332 0.0 0.0 0.00 0.00 0.00 74 1016.6
20260508101020 52 332 0.0 0.0 0.00 0.00 0.00 73 1016.5
20260508100603 52 332 0.0 0.0 0.00 0.00 0.00 73 1016.5
20260508100106 52 332 0.0 0.0 0.00 0.00 0.00 73 1016.5
20260508100021 52 332 0.0 0.0 0.00 0.00 0.00 72 1016.5
20260508095604 52 332 0.0 0.0 0.00 0.00 0.00 72 1016.5
20260508095106 52 332 0.0 0.0 0.00 0.00 0.00 72 1016.4
20260508094604 52 332 0.0 0.0 0.00 0.00 0.00 72 1016.4
20260508094104 52 332 0.0 0.0 0.00 0.00 0.00 71 1016.3
20260508094021 53 332 0.0 0.0 0.00 0.00 0.00 71 1016.4
20260508093605 53 332 0.0 0.0 0.00 0.00 0.00 71 1016.4
20260508093104 53 332 0.0 0.0 0.00 0.00 0.00 70 1016.4
20260508092104 53 332 0.0 0.0 0.00 0.00 0.00 69 1016.1
20260508092022 54 332 0.0 0.0 0.00 0.00 0.00 69 1016.1
20260508091604 54 332 0.0 0.0 0.00 0.00 0.00 69 1016.1
20260508091105 54 332 0.0 0.0 0.00 0.00 0.00 69 1016.0
20260508091021 54 332 0.0 0.0 0.00 0.00 0.00 68 1015.9
20260508090604 54 332 0.0 0.0 0.00 0.00 0.00 68 1015.9
20260508090104 54 332 0.0 0.0 0.00 0.00 0.00 67 1015.9
20260508090020 55 332 0.0 0.0 0.00 0.00 0.00 66 1015.9
20260508085605 55 332 0.0 0.0 0.00 0.00 0.00 66 1015.9
20260508085104 55 332 0.0 0.0 0.00 0.00 0.00 65 1015.8
20260508085020 55 332 0.0 0.0 0.00 0.00 0.00 65 1015.9
20260508084105 56 332 0.0 0.0 0.00 0.00 0.00 65 1015.9
20260508084021 56 332 0.0 0.0 0.00 0.00 0.00 64 1015.9
20260508083604 56 332 0.0 0.0 0.00 0.00 0.00 64 1015.9
20260508082604 57 332 0.0 0.0 0.00 0.00 0.00 63 1015.9
20260508082106 57 332 0.0 0.0 0.00 0.00 0.00 63 1015.8
20260508082020 57 332 0.0 0.0 0.00 0.00 0.00 62 1015.8
20260508081020 58 332 0.0 0.0 0.00 0.00 0.00 60 1016.1
20260508080605 58 332 0.0 0.0 0.00 0.00 0.00 60 1016.1
20260508080020 58 332 0.0 0.0 0.00 0.00 0.00 58 1015.9
20260508075604 58 332 0.0 0.0 0.00 0.00 0.00 58 1015.9
20260508075104 58 332 0.0 0.0 0.00 0.00 0.00 58 1015.9
20260508075021 58 332 0.0 0.0 0.00 0.00 0.00 59 1015.9
20260508074605 58 332 0.0 0.0 0.00 0.00 0.00 59 1015.9
20260508074105 59 332 0.0 0.0 0.00 0.00 0.00 58 1015.9
20260508073604 59 332 0.0 0.0 0.00 0.00 0.00 57 1015.9
20260508073104 59 331 0.0 0.0 0.00 0.00 0.00 56 1015.9
20260508073022 59 331 0.0 0.0 0.00 0.00 0.00 56 1015.9
20260508072606 59 331 0.0 0.0 0.00 0.00 0.00 56 1015.9
20260508072104 59 331 0.0 0.0 0.00 0.00 0.00 54 1016.0
20260508072020 59 331 0.0 0.0 0.00 0.00 0.00 54 1015.9
20260508071604 59 331 0.0 0.0 0.00 0.00 0.00 54 1015.9
20260508071104 60 331 0.0 0.0 0.00 0.00 0.00 53 1015.9
20260508071020 60 331 0.0 0.0 0.00 0.00 0.00 54 1015.9
20260508070604 60 331 0.0 0.0 0.00 0.00 0.00 54 1015.9
20260508070104 60 331 0.0 0.0 0.00 0.00 0.00 54 1015.9
20260508070020 60 331 0.0 0.0 0.00 0.00 0.00 53 1015.8
20260508065605 60 331 0.0 0.0 0.00 0.00 0.00 53 1015.8
20260508065021 61 331 0.0 0.0 0.00 0.00 0.00 52 1015.8
20260508064604 61 331 0.0 0.0 0.00 0.00 0.00 52 1015.8
20260508064021 61 331 0.0 0.0 0.00 0.00 0.00 52 1015.7